Location: Abraham Lincoln Continuation High School
(33.9711°N, 117.3662°W)
Time: 14:52:29
(UTC+00:00)

PAYLOAD A - Pass Details

Date: 21 September 2020
Orbit: 691 x 832 km, 98.3° (Epoch: 28 October)

Event Time Altitude Azimuth Distance (km) Brightness Sun altitude
Rises 11:22:38 0° 17° (NNE) 3,072 7.6 -28.1°
Reaches altitude 10° 11:24:56 10° 21° (NNE) 2,149 6.8 -27.6°
Maximum altitude 11:29:32 58° 101° (E) 806 4.2 -26.8°
Enters shadow 11:30:36 46° 150° (SSE) 929 4.4 -26.5°
